Orbital Elements at Epoch 2459200.5 (2020-Dec-17.0) TDB
Reference: JPL 26 (heliocentric ecliptic J2000)
Element | Value | Uncertainty (1-sigma) | Units |
e | .2090718065444936 | 4.4723e-08 | |
a | 2.693299241961726 | 1.583e-08 | au |
q | 2.130206303879873 | 1.2615e-07 | au |
i | 12.02929273096224 | 4.3099e-06 | deg |
node | 277.8065247682356 | 2.34e-05 | deg |
peri | 113.6191499417567 | 2.6315e-05 | deg |
M | 323.4188893035476 | 1.3166e-05 | deg |
tp | 2459364.551319183974 (2021-May-30.05131918) | 5.9921e-05 | TDB |
period | 1614.45275394435 4.42 | 1.4233e-05 3.897e-08 | d yr |
n | .2229857759048483 | 1.9659e-09 | deg/d |
Q | 3.256392180043579 | 1.9139e-08 | au |
|
| | Orbit Determination Parameters
Additional Information
|